User: anonymous   Login
Location: Vancouver
(49.2500°N, 123.1330°W)
Time: 00:46:53
(UTC-07:00)
Language:

AO-27 - Orbit

View from above orbital plane
View from above orbital plane
View from above satellite
View from above satellite

Ground track
Ground track

The orbit data is extracted from the following two-line orbital elements,

1 22825U 93061C   15184.85868002  .00000027  00000-0  27829-4 0  9995
2 22825 098.7095 134.9732 0007254 259.3480 158.9436 14.29889273135320
Epoch (UTC): 03 July 2015 20:36:29
Eccentricity: 0.0007254
inclination: 98.7095°
perigee height: 787 km
apogee height: 797 km
right ascension of ascending node: 134.9732°
argument of perigee: 259.3480°
revolutions per day: 14.29889273
mean anomaly at epoch: 158.9436°
orbit number at epoch: 13532

The dashed part of the orbit path shows where the satellite is in the earth's shadow,  

DLR